Regional Weather Roundup
Issued by NWS

Home | Current Version | Previous Version | Graphics & Text | Print | Product List | Glossary Off
Versions: 1 2 3 4 5 6 7 8 9 10 11 12 13 14 15 16 17 18 19 20 21 22 23 24 25 26 27 28 29 30 31 32 33 34 35 36 37 38 39 40 41 42 43 44 45 46 47 48 49 50

000
ASUS43 KMKX 051511
RWRWI

WISCONSIN REGIONAL WEATHER ROUNDUP
NATIONAL WEATHER SERVICE MILWAUKEE/SULLIVAN WI
1000 AM CDT TUE MAY 05 2015

NOTE: "FAIR" INDICATES FEW OR NO CLOUDS BELOW 12,000 FEET WITH NO
SIGNIFICANT WEATHER AND/OR OBSTRUCTIONS TO VISIBILITY.

WIZ001-002-006>008-014>016-023>028-051600-
NORTHWEST WISCONSIN

CITY           SKY/WX    TMP DP  RH WIND       PRES   REMARKS
SUPERIOR ARPT  SUNNY     53  32  45 E7        30.28F
ASHLAND        SUNNY     63  37  38 VRB6      30.30F
HAYWARD        SUNNY     62  30  29 E8        30.27F
SIREN          SUNNY     65  22  19 SE15      30.25S
CUMBERLAND     SUNNY     59  21  23 SE14G22   30.26S
RICE LAKE      SUNNY     62  21  20 E13G21    30.28S
CHETEK         SUNNY     62  27  26 E8G18     30.27S
LADYSMITH      SUNNY     63  20  18 SE9       30.30S
EAU CLAIRE     SUNNY     63  25  23 SE17G23   30.25F
MENOMONIE      SUNNY     60  32  34 E14       30.25F
NEW RICHMOND   SUNNY     61  30  30 SE15G22   30.23F
OSCEOLA        SUNNY     62  31  30 SE15G21   30.26S
$$

WIZ003>005-009-010-017-018-051600-
NORTH CENTRAL WISCONSIN

CITY           SKY/WX    TMP DP  RH WIND       PRES   REMARKS
MANITOWISH WTR SUNNY     61  31  33 SE7       30.31S
ARBOR VITAE    SUNNY     62  29  29 E7        30.31S
WOODRUFF       SUNNY     62  29  29 E7        30.31S
RHINELANDER    SUNNY     62  25  24 E10       30.31F
EAGLE RIVER    SUNNY     60  24  25 E9        30.32S
LAND O LAKES   SUNNY     62  23  22 E10       30.33S
PHILLIPS       SUNNY     61  28  27 E10       30.29S
TOMAHAWK       SUNNY     63  18  17 CALM      30.31R
MEDFORD        SUNNY     58  25  28 SE12      30.29S
MERRILL        SUNNY     62  21  21 SE10G16   30.31R
$$

WIZ029-030-035-036-043>047-051600-
CENTRAL WISCONSIN

CITY           SKY/WX    TMP DP  RH WIND       PRES   REMARKS
WAUSAU         SUNNY     59  26  28 SE10      30.29S
MOSINEE        SUNNY     57  27  30 E16       30.31S
MARSHFIELD     SUNNY     59  32  36 SE15      30.29S
STEVENS POINT  MOSUNNY   57  30  36 E10       30.30S
WAUPACA        MOSUNNY   58  36  42 NE5       30.31S
WAUTOMA        PTSUNNY   54  38  54 NE8       30.30R
WISC RAPIDS    NOT AVBL
CAMP DOUGLAS   PTSUNNY   54  43  66 E12       30.27R
$$

WIZ011>013-019>022-031-037>040-048>050-051600-
NORTHEAST WISCONSIN

CITY           SKY/WX    TMP DP  RH WIND       PRES   REMARKS
ANTIGO         SUNNY     57  29  34 E13       30.32S
SHAWANO        MOSUNNY   59  33  38 E9        30.33S
OCONTO         MOSUNNY   55  37  52 E8        30.34S
STURGEON BAY   MOSUNNY   52  34  50 E12       30.36S
GREEN BAY      PTSUNNY   55  37  50 NE9       30.32R
MANITOWOC      CLOUDY    51  35  54 NE7       30.31S
APPLETON       PTSUNNY   54  34  47 E7        30.30S
CLINTONVILLE   MOSUNNY   61  27  27 E10G16    30.31S
OSHKOSH        CLOUDY    55  38  52 E9        30.29R HAZE
$$

WIZ032>034-041-042-053>061-051600-
SOUTHWEST WISCONSIN

CITY           SKY/WX    TMP DP  RH WIND       PRES   REMARKS
LA CROSSE      LGT RAIN  54  48  80 SE8       30.25R
SPARTA         CLOUDY    54  40  59 E10       30.27S
VIROQUA        CLOUDY    50  50 100 E15       30.25R
BOSCOBEL       LGT RAIN  52  48  86 NE7       30.25R
PRAIRIE DU CHI DRIZZLE   52  48  84 E10       30.23R
PLATTEVILLE    CLOUDY    51  49  93 E18       30.22R
$$

WIZ056-057-062-063-064-067-068-051600-
SOUTH CENTRAL WISCONSIN

CITY           SKY/WX    TMP DP  RH WIND       PRES   REMARKS
REEDSBURG      DRIZZLE   48  46  93 E5        30.27S
BARABOO/DELLS  NOT AVBL
LONE ROCK      LGT RAIN  50  47  89 E9        30.26R
MINERAL POINT  LGT RAIN  52  48  87 E14       30.23S
MADISON        LGT RAIN  51  46  83 E7        30.26R
MIDDLETON      CLOUDY    51  47  86 E6        30.27R
WATERTOWN      DRIZZLE   51  51  99 E8        30.26R
MONROE         RAIN      50  48  93 NE10      30.24R
JANESVILLE     LGT RAIN  52  48  87 E9        30.24R FOG
$$

WIZ051-052-058>065-066-070>072-051600-
SOUTHEAST WISCONSIN

CITY           SKY/WX    TMP DP  RH WIND       PRES   REMARKS
MILWAUKEE      LGT RAIN  47  42  83 E12       30.28R
WAUKESHA       LGT RAIN  48  46  93 E12       30.28R
MILWAUKEE/TIMM LGT RAIN  48  43  81 E8        30.28R
RACINE         LGT RAIN  46  43  89 NE9       30.28R
BURLINGTON     RAIN      47  45  95 E10       30.26R
KENOSHA        LGT RAIN  48  45  89 NE8       30.27R
FOND DU LAC    CLOUDY    53  38  56 NE9       30.29R
SHEBOYGAN      CLOUDY    49  37  63 NE8       30.30R
WEST BEND      LGT RAIN  48  43  81 E7        30.28R
JUNEAU         DRIZZLE   50  46  84 E8        30.28R
$$

LSZ147-162-051600-
LAKE SUPERIOR

STATION/POSITION TIME  TEMP    WIND        PRES    WAVE
                       AIR SEA DIR/SP/G            HT/PER
                 (UTC) (F)     (DEG/KT/KT) (MB)    (FT/S)
W MID LAKE BUOY  1450   40 35  160/  4/  4 1027.5F
DEVILS ISLAND    1500   51      60/  2/  3 1026.7F
PORT WING        1400   43      20/  4/  5 1026.4R
SAXON HARBOR     1440   46        CALM     1026.1S
$$

LMZ867-665-643>646-051600-
LAKE MICHIGAN

STATION/POSITION TIME  TEMP    WIND        PRES    WAVE
                       AIR SEA DIR/SP/G            HT/PER
                 (UTC) (F)     (DEG/KT/KT) (MB)    (FT/S)
CHAMBERS ISLAND  1400   49      20/  6/  8 1027.8R
NORTHPORT PIER   1400   48     110/  3/  6 1027.4S
SISTER BAY       1302          100/ 10/ 13   N/A
KEWAUNEE LAKESHO 1400   44      40/ 12/ 15 1025.7F
SHEBOYGAN LAKESH 1500   43     360/  7/  8 1026.7R
PORT WASHINGTON  1440   46      30/  7/  9 1026.1R
ATWATER BUOY     1400   44      50/  8/ 12 1025.7S
MILWAUKEE LAKESH 1400   45      50/ 11/ 13   N/A
KENOSHA   LAKESH 1500   45      40/  9/ 13 1024.7R
$$

TC  - TEMPERATURE IN CELSIUS
VSB - VISIBILITY IN STATUTE MILES
WCI - WIND CHILL INDEX
HX  - HEAT INDEX



USA.gov is the U.S. government's official web portal to all federal, state and local government web resources and services.